Location: Eitze
(52.9840°N, 9.6894°E)
Time: 02:25:43
(UTC+00:00)

BlueWalker 3 - Visible Passes

Search period start: 19 January 2026 00:00
Search period end: 29 January 2026 00:00
Orbit: 451 x 463 km, 53.2° (Epoch: 18 January)

Date Brightness Start Highest point End Pass type
(mag) Time Alt. Az. Time Alt. Az. Time Alt. Az.
21 Jan 4.1 17:25:20 10° SSE 17:26:00 11° SE 17:26:00 11° SE visible
21 Jan 4.7 18:59:32 10° SW 18:59:45 11° SW 18:59:45 11° SW visible
22 Jan 3.5 18:24:17 10° SW 18:26:03 24° SSW 18:26:03 24° SSW visible
23 Jan 2.8 17:49:04 10° SSW 17:52:13 29° SSE 17:52:17 29° SE visible
23 Jan 5.0 19:25:52 10° WSW 19:26:01 11° WSW 19:26:01 11° WSW visible
24 Jan 3.1 17:13:54 10° SSW 17:16:52 25° SE 17:18:26 18° ESE visible
24 Jan 3.8 18:50:27 10° WSW 18:52:10 26° WSW 18:52:10 26° WSW visible
25 Jan 3.5 16:38:47 10° SSW 16:41:32 21° SE 16:44:17 10° E visible
25 Jan 2.0 18:15:03 10° WSW 18:18:15 61° SSW 18:18:15 61° SSW visible
26 Jan 1.9 17:39:38 10° WSW 17:43:10 58° SSE 17:44:17 37° E visible
26 Jan 4.6 19:17:02 10° W 19:18:01 18° W 19:18:01 18° W visible
27 Jan 2.2 17:04:16 10° SW 17:07:44 51° SSE 17:10:17 17° E visible
27 Jan 3.0 18:41:34 10° W 18:44:01 41° W 18:44:01 41° W visible
28 Jan 1.5 18:06:05 10° W 18:09:40 88° N 18:09:59 73° ENE visible
28 Jan 5.2 19:43:36 10° W 19:43:43 11° W 19:43:43 11° W visible
